DW8078 Weather Reports


Display with metric or nautical units.
time (UTC)temp
F
wind
direction
speed
MPH
gust
MPH
rain 1hr
in
rain 24hr
in
rain mn
in
humidity
%
barometer
mb
20200810011636 65 49 0.0 0.0 0.00 0.00 0.00 88 1018.7
20200810010127 65 49 0.0 0.0 0.00 0.00 0.00 88 1018.6
20200810004654 65 49 0.0 0.0 0.00 0.00 0.00 87 1018.6
20200810003153 66 49 0.0 0.0 0.00 0.00 0.00 86 1018.7
20200810001711 66 49 0.0 0.0 0.00 0.00 0.00 85 1018.7
20200810000147 67 76 0.0 0.0 0.00 0.00 0.00 86 1018.5
20200809234709 67 81 0.0 0.0 0.00 0.00 0.00 85 1018.5
20200809233217 67 80 0.0 0.0 0.00 0.00 0.00 84 1018.5
20200809231604 68 80 0.0 0.0 0.00 0.00 0.00 84 1018.5
20200809230100 69 80 0.0 0.0 0.00 0.00 0.00 83 1018.5
20200809224552 69 80 0.0 0.0 0.00 0.00 0.00 82 1018.5
20200809223055 69 97 0.0 0.0 0.00 0.00 0.00 82 1018.6
20200809221552 69 77 0.0 0.0 0.00 0.00 0.00 82 1018.6
20200809220100 69 75 0.0 0.0 0.00 0.00 0.00 81 1018.6
20200809214605 69 46 0.0 0.0 0.00 0.00 0.00 81 1018.7
20200809213230 69 51 0.0 0.0 0.00 0.00 0.00 80 1018.7
20200809211553 69 40 0.0 0.0 0.00 0.00 0.00 78 1018.7
20200809210109 70 30 0.0 0.0 0.00 0.00 0.00 77 1018.7
20200809204637 71 13 0.0 0.0 0.00 0.00 0.00 76 1018.5
20200809203119 72 71 0.0 0.0 0.00 0.00 0.00 74 1018.5
20200809201611 73 71 0.0 0.0 0.00 0.00 0.00 73 1018.5
20200809200132 73 80 0.0 4.0 0.00 0.00 0.00 73 1018.5
20200809194620 73 67 0.0 3.0 0.00 0.00 0.00 72 1018.4
20200809193118 74 76 0.0 5.0 0.00 0.00 0.00 70 1018.5
20200809191607 75 76 0.0 1.0 0.00 0.00 0.00 69 1018.5
20200809190048 75 74 0.0 6.0 0.00 0.00 0.00 68 1018.4
20200809184544 76 63 0.0 5.0 0.00 0.00 0.00 67 1018.5
20200809183108 76 72 0.0 4.0 0.00 0.00 0.00 66 1018.5
20200809181621 77 68 0.0 4.0 0.00 0.00 0.00 63 1018.5
20200809180129 78 51 1.0 5.0 0.00 0.00 0.00 61 1018.3
20200809174608 79 63 1.0 8.0 0.00 0.00 0.00 58 1017.9
20200809173106 80 53 3.0 6.0 0.00 0.00 0.00 55 1018.0
20200809171623 80 80 0.0 5.0 0.00 0.00 0.00 53 1018.1
20200809170031 81 63 0.0 4.0 0.00 0.00 0.00 52 1017.8
20200809164536 82 46 0.0 6.0 0.00 0.00 0.00 53 1018.0
20200809163055 82 48 0.0 5.0 0.00 0.00 0.00 53 1018.1
20200809161531 83 346 0.0 0.0 0.00 0.00 0.00 56 1018.1
20200809160050 83 54 0.0 0.0 0.00 0.00 0.00 52 1017.9
20200809154632 83 46 0.0 5.0 0.00 0.00 0.00 48 1017.8
20200809153040 84 64 0.0 5.0 0.00 0.00 0.00 46 1017.7
20200809151540 84 71 0.0 6.0 0.00 0.00 0.00 47 1017.6
20200809150038 85 91 1.0 10.0 0.00 0.00 0.00 48 1017.7
20200809144528 86 79 3.0 9.0 0.00 0.00 0.00 48 1017.9
20200809143049 86 61 2.0 8.0 0.00 0.00 0.00 49 1017.8
20200809141525 87 98 1.0 7.0 0.00 0.00 0.00 47 1017.8
20200809140017 87 74 1.0 10.0 0.00 0.00 0.00 46 1018.0
20200809134515 87 121 1.0 9.0 0.00 0.00 0.00 45 1018.0
20200809133016 87 109 0.0 6.0 0.00 0.00 0.00 45 1018.1
20200809131543 86 90 0.0 9.0 0.00 0.00 0.00 47 1018.4
20200809130037 87 157 1.0 6.0 0.00 0.00 0.00 47 1018.3
20200809124512 86 88 0.0 4.0 0.00 0.00 0.00 47 1018.3
20200809123011 86 42 2.0 9.0 0.00 0.00 0.00 47 1018.6
20200809121507 87 86 2.0 5.0 0.00 0.00 0.00 46 1018.5
20200809120007 86 141 0.0 4.0 0.00 0.00 0.00 47 1018.9
20200809114728 86 96 0.0 8.0 0.00 0.00 0.00 47 1019.1
20200809113404 85 72 1.0 8.0 0.00 0.00 0.00 47 1019.1
20200809111717 85 64 4.0 10.0 0.00 0.00 0.00 47 1019.2
20200809110354 85 96 1.0 9.0 0.00 0.00 0.00 47 1019.2
20200809104622 85 92 2.0 7.0 0.00 0.00 0.00 47 1019.3
20200809103053 85 74 0.0 5.0 0.00 0.00 0.00 50 1019.6
20200809101624 83 89 0.0 7.0 0.00 0.00 0.00 53 1019.6
20200809100138 83 92 2.0 7.0 0.00 0.00 0.00 54 1019.7
20200809094617 83 84 4.0 8.0 0.00 0.00 0.00 54 1020.0
20200809093123 81 37 0.0 4.0 0.00 0.00 0.00 59 1019.9
20200809091632 80 78 0.0 5.0 0.00 0.00 0.00 60 1019.9
20200809090055 80 114 3.0 8.0 0.00 0.00 0.00 62 1019.9
20200809084612 80 84 2.0 7.0 0.00 0.00 0.00 62 1019.9
20200809083111 79 80 5.0 9.0 0.00 0.00 0.00 62 1020.0
20200809081634 78 93 0.0 4.0 0.00 0.00 0.00 67 1020.0
20200809080242 78 77 0.0 4.0 0.00 0.00 0.00 66 1020.0
20200809074637 77 82 0.0 5.0 0.00 0.00 0.00 69 1020.0
20200809073045 77 82 0.0 5.0 0.00 0.00 0.00 70 1020.0
20200809071550 76 78 0.0 4.0 0.00 0.00 0.00 72 1020.1
20200809070048 75 91 0.0 3.0 0.00 0.00 0.00 76 1020.1
20200809064551 73 165 0.0 0.0 0.00 0.00 0.00 79 1020.1
20200809063017 73 74 0.0 0.0 0.00 0.00 0.00 80 1020.1
20200809061538 72 135 0.0 0.0 0.00 0.00 0.00 82 1020.0
20200809060017 71 74 0.0 0.0 0.00 0.00 0.00 85 1020.0
20200809054505 69 71 0.0 0.0 0.00 0.00 0.00 87 1019.9
20200809053006 68 30 0.0 0.0 0.00 0.00 0.00 88 1019.8
20200809051518 66 304 0.0 0.0 0.00 0.00 0.00 88 1019.8
20200809050208 66 72 0.0 0.0 0.00 0.00 0.00 88 1019.9
20200809044709 67 160 0.0 0.0 0.00 0.00 0.00 89 1019.7
20200809043143 66 11 0.0 0.0 0.00 0.00 0.00 89 1019.7
20200809041629 65 311 0.0 0.0 0.00 0.00 0.00 89 1019.6
20200809040130 66 64 0.0 0.0 0.00 0.00 0.00 89 1019.6
20200809034618 66 61 0.0 0.0 0.00 0.00 0.00 89 1019.5
20200809033146 65 94 0.0 0.0 0.00 0.00 0.00 88 1019.5
20200809031611 65 94 0.0 0.0 0.00 0.00 0.00 88 1019.5
20200809030107 65 94 0.0 0.0 0.00 0.00 0.00 88 1019.5
20200809024619 65 94 0.0 0.0 0.00 0.00 0.00 87 1019.5
20200809023116 66 94 0.0 0.0 0.00 0.00 0.00 87 1019.5
20200809021602 66 94 0.0 0.0 0.00 0.00 0.00 86 1019.6
20200809020053 66 94 0.0 0.0 0.00 0.00 0.00 86 1019.6
20200809014618 67 94 0.0 0.0 0.00 0.00 0.00 85 1019.6
20200809013149 68 94 0.0 0.0 0.00 0.00 0.00 84 1019.7